Location: Lecco
(45.8566°N, 9.3977°E)
Time: 12:47:43
(UTC+02:00)

Explorer 11/Cluster Stage 4 - Pass Details

Date: 20 August 2020
Orbit: 467 x 1258 km, 28.8° (Epoch: 24 September)

Event Time Altitude Azimuth Distance (km) Brightness Sun altitude
Rises 00:45:17 0° 249° (WSW) 4,019 10.1 -31.1°
Enters shadow 00:45:50 - 247° (WSW) 3,903 10.0 -31.1°
Reaches altitude 10° 00:51:04 10° 216° (SW) 3,178 - -31.2°
Maximum altitude 00:52:49 11° 203° (SSW) 3,138 - -31.3°
Drops below altitude 10° 00:54:36 10° 191° (S) 3,216 - -31.3°
Sets 01:00:37 0° 158° (SSE) 4,179 - -31.5°
